Time,TemperatureF,DewpointF,PressureIn,WindDirection,WindDirectionDegrees,WindSpeedMPH,WindSpeedGustMPH,Humidity,HourlyPrecipIn,Conditions,Clouds,dailyrainin,SoftwareType,DateUTC
2013-04-25 00:01:00,49.0,49.0,-100.00,North,-999,-999.0,-999.0,100,-99.99,,,-99.99,,2013-04-25 07:01:00,
2013-04-25 00:11:00,49.0,49.0,-100.00,North,-999,-999.0,-999.0,100,-99.99,,,-99.99,,2013-04-25 07:11:00,
2013-04-25 00:21:00,49.0,49.0,-100.00,North,-999,-999.0,-999.0,100,-99.99,,,-99.99,,2013-04-25 07:21:00,
2013-04-25 00:31:00,49.0,49.0,-100.00,North,-999,-999.0,-999.0,99,-99.99,,,-99.99,,2013-04-25 07:31:00,
2013-04-25 00:42:00,49.0,49.0,-100.00,North,-999,-999.0,-999.0,99,-99.99,,,-99.99,,2013-04-25 07:42:00,
2013-04-25 00:52:00,49.0,49.0,-100.00,North,-999,-999.0,-999.0,99,-99.99,,,-99.99,,2013-04-25 07:52:00,
2013-04-25 01:01:00,48.0,48.0,-100.00,North,-999,-999.0,-999.0,100,-99.99,,,-99.99,,2013-04-25 08:01:00,
2013-04-25 01:11:00,48.0,48.0,-100.00,North,-999,-999.0,-999.0,100,-99.99,,,-99.99,,2013-04-25 08:11:00,
2013-04-25 01:21:00,48.0,48.0,-100.00,North,-999,-999.0,-999.0,100,-99.99,,,-99.99,,2013-04-25 08:21:00,
2013-04-25 01:31:00,49.0,49.0,-100.00,North,-999,-999.0,-999.0,100,-99.99,,,0.00,,2013-04-25 08:31:00,
2013-04-25 01:42:00,49.0,49.0,-100.00,North,-999,-999.0,-999.0,100,-99.99,,,0.00,,2013-04-25 08:42:00,
2013-04-25 01:52:00,49.0,49.0,-100.00,North,-999,-999.0,-999.0,100,-99.99,,,0.00,,2013-04-25 08:52:00,
2013-04-25 02:01:00,49.0,49.0,-100.00,North,-999,-999.0,-999.0,99,-99.99,,,-99.99,,2013-04-25 09:01:00,
2013-04-25 02:11:00,49.0,49.0,-100.00,North,-999,-999.0,-999.0,99,-99.99,,,-99.99,,2013-04-25 09:11:00,
2013-04-25 02:21:00,49.0,49.0,-100.00,North,-999,-999.0,-999.0,99,-99.99,,,-99.99,,2013-04-25 09:21:00,
2013-04-25 02:32:00,49.0,49.0,-100.00,North,-999,-999.0,-999.0,99,-99.99,,,-99.99,,2013-04-25 09:32:00,
2013-04-25 02:42:00,49.0,49.0,-100.00,North,-999,-999.0,-999.0,99,-99.99,,,-99.99,,2013-04-25 09:42:00,
2013-04-25 02:52:00,49.0,49.0,-100.00,North,-999,-999.0,-999.0,99,-99.99,,,-99.99,,2013-04-25 09:52:00,
2013-04-25 03:02:00,47.0,47.0,-100.00,North,-999,-999.0,-999.0,100,-99.99,,,-99.99,,2013-04-25 10:02:00,
2013-04-25 03:12:00,47.0,47.0,-100.00,North,-999,-999.0,-999.0,100,-99.99,,,-99.99,,2013-04-25 10:12:00,
2013-04-25 03:22:00,47.0,47.0,-100.00,North,-999,-999.0,-999.0,100,-99.99,,,-99.99,,2013-04-25 10:22:00,
2013-04-25 03:32:00,48.0,47.0,-100.00,North,-999,-999.0,-999.0,96,-99.99,,,-99.99,,2013-04-25 10:32:00,
2013-04-25 03:42:00,48.0,47.0,-100.00,North,-999,-999.0,-999.0,96,-99.99,,,-99.99,,2013-04-25 10:42:00,
2013-04-25 03:53:00,48.0,47.0,-100.00,North,-999,-999.0,-999.0,96,-99.99,,,-99.99,,2013-04-25 10:53:00,
2013-04-25 04:02:00,46.0,46.0,-100.00,North,-999,-999.0,-999.0,99,-99.99,,,-99.99,,2013-04-25 11:02:00,
2013-04-25 04:12:00,46.0,46.0,-100.00,North,-999,-999.0,-999.0,99,-99.99,,,-99.99,,2013-04-25 11:12:00,
2013-04-25 04:22:00,46.0,46.0,-100.00,North,-999,-999.0,-999.0,99,-99.99,,,-99.99,,2013-04-25 11:22:00,
2013-04-25 05:01:00,48.0,47.0,-100.00,North,-999,-999.0,-999.0,95,-99.99,,,-99.99,,2013-04-25 12:01:00,
2013-04-25 05:12:00,48.0,47.0,-100.00,North,-999,-999.0,-999.0,95,-99.99,,,-99.99,,2013-04-25 12:12:00,
2013-04-25 05:21:00,48.0,47.0,-100.00,North,-999,-999.0,-999.0,95,-99.99,,,-99.99,,2013-04-25 12:21:00,
2013-04-25 05:31:00,48.0,46.0,-100.00,North,-999,-999.0,-999.0,94,-99.99,,,-99.99,,2013-04-25 12:31:00,
2013-04-25 05:42:00,48.0,46.0,-100.00,North,-999,-999.0,-999.0,94,-99.99,,,-99.99,,2013-04-25 12:42:00,
2013-04-25 05:52:00,48.0,46.0,-100.00,North,-999,-999.0,-999.0,94,-99.99,,,-99.99,,2013-04-25 12:52:00,
2013-04-25 06:02:00,48.0,47.0,-100.00,North,-999,-999.0,-999.0,96,-99.99,,,-99.99,,2013-04-25 13:02:00,
2013-04-25 06:11:00,48.0,47.0,-100.00,North,-999,-999.0,-999.0,96,-99.99,,,-99.99,,2013-04-25 13:11:00,
2013-04-25 06:21:00,48.0,47.0,-100.00,North,-999,-999.0,-999.0,96,-99.99,,,-99.99,,2013-04-25 13:21:00,
2013-04-25 06:31:00,47.0,46.0,-100.00,North,-999,-999.0,-999.0,97,-99.99,,,-99.99,,2013-04-25 13:31:00,
2013-04-25 06:42:00,47.0,46.0,-100.00,North,-999,-999.0,-999.0,97,-99.99,,,-99.99,,2013-04-25 13:42:00,
2013-04-25 06:52:00,47.0,46.0,-100.00,North,-999,-999.0,-999.0,97,-99.99,,,-99.99,,2013-04-25 13:52:00,
2013-04-25 07:01:00,47.0,46.0,-100.00,North,-999,-999.0,-999.0,96,-99.99,,,-99.99,,2013-04-25 14:01:00,
2013-04-25 07:11:00,47.0,46.0,-100.00,North,-999,-999.0,-999.0,96,-99.99,,,-99.99,,2013-04-25 14:11:00,
2013-04-25 07:21:00,47.0,46.0,-100.00,North,-999,-999.0,-999.0,96,-99.99,,,-99.99,,2013-04-25 14:21:00,
2013-04-25 07:32:00,48.0,47.0,-100.00,North,-999,-999.0,-999.0,95,-99.99,,,-99.99,,2013-04-25 14:32:00,
2013-04-25 07:42:00,48.0,47.0,-100.00,North,-999,-999.0,-999.0,95,-99.99,,,-99.99,,2013-04-25 14:42:00,
2013-04-25 07:52:00,48.0,47.0,-100.00,North,-999,-999.0,-999.0,95,-99.99,,,-99.99,,2013-04-25 14:52:00,
2013-04-25 08:01:00,48.0,47.0,-100.00,North,-999,-999.0,-999.0,95,-99.99,,,-99.99,,2013-04-25 15:01:00,
2013-04-25 08:33:00,49.0,47.0,-100.00,North,-999,-999.0,-999.0,92,-99.99,,,-99.99,,2013-04-25 15:33:00,
2013-04-25 08:42:00,49.0,47.0,-100.00,North,-999,-999.0,-999.0,92,-99.99,,,-99.99,,2013-04-25 15:42:00,
2013-04-25 08:53:00,49.0,47.0,-100.00,North,-999,-999.0,-999.0,92,-99.99,,,-99.99,,2013-04-25 15:53:00,
2013-04-25 09:02:00,49.0,46.0,-100.00,North,-999,-999.0,-999.0,89,-99.99,,,-99.99,,2013-04-25 16:02:00,
2013-04-25 09:13:00,49.0,46.0,-100.00,North,-999,-999.0,-999.0,89,-99.99,,,-99.99,,2013-04-25 16:13:00,
2013-04-25 09:24:00,49.0,46.0,-100.00,North,-999,-999.0,-999.0,89,-99.99,,,-99.99,,2013-04-25 16:24:00,
2013-04-25 09:32:00,49.0,46.0,-100.00,North,-999,-999.0,-999.0,89,-99.99,,,-99.99,,2013-04-25 16:32:00,
2013-04-25 10:02:00,57.0,48.0,-100.00,North,-999,-999.0,-999.0,71,-99.99,,,-99.99,,2013-04-25 17:02:00,
2013-04-25 10:11:00,57.0,48.0,-100.00,North,-999,-999.0,-999.0,71,-99.99,,,-99.99,,2013-04-25 17:11:00,
2013-04-25 10:22:00,57.0,48.0,-100.00,North,-999,-999.0,-999.0,71,-99.99,,,-99.99,,2013-04-25 17:22:00,
2013-04-25 10:31:00,59.0,48.0,-100.00,North,-999,-999.0,-999.0,67,-99.99,,,-99.99,,2013-04-25 17:31:00,
2013-04-25 10:42:00,59.0,48.0,-100.00,North,-999,-999.0,-999.0,67,-99.99,,,-99.99,,2013-04-25 17:42:00,
2013-04-25 10:53:00,59.0,48.0,-100.00,North,-999,-999.0,-999.0,67,-99.99,,,-99.99,,2013-04-25 17:53:00,
2013-04-25 11:01:00,61.0,50.0,-100.00,North,-999,-999.0,-999.0,66,-99.99,,,-99.99,,2013-04-25 18:01:00,
2013-04-25 11:11:00,61.0,50.0,-100.00,North,-999,-999.0,-999.0,66,-99.99,,,-99.99,,2013-04-25 18:11:00,
2013-04-25 11:21:00,61.0,50.0,-100.00,North,-999,-999.0,-999.0,66,-99.99,,,-99.99,,2013-04-25 18:21:00,
2013-04-25 11:31:00,60.0,49.0,-100.00,North,-999,-999.0,-999.0,68,-99.99,,,-99.99,,2013-04-25 18:31:00,
2013-04-25 11:43:00,60.0,49.0,-100.00,North,-999,-999.0,-999.0,68,-99.99,,,-99.99,,2013-04-25 18:43:00,
2013-04-25 11:52:00,60.0,49.0,-100.00,North,-999,-999.0,-999.0,68,-99.99,,,-99.99,,2013-04-25 18:52:00,
2013-04-25 12:01:00,62.0,50.0,-100.00,North,-999,-999.0,-999.0,65,-99.99,,,-99.99,,2013-04-25 19:01:00,
2013-04-25 12:12:00,62.0,50.0,-100.00,North,-999,-999.0,-999.0,65,-99.99,,,-99.99,,2013-04-25 19:12:00,
2013-04-25 12:21:00,62.0,50.0,-100.00,North,-999,-999.0,-999.0,65,-99.99,,,-99.99,,2013-04-25 19:21:00,
2013-04-25 12:31:00,63.0,49.0,-100.00,North,-999,-999.0,-999.0,61,-99.99,,,-99.99,,2013-04-25 19:31:00,
2013-04-25 12:42:00,63.0,49.0,-100.00,North,-999,-999.0,-999.0,61,-99.99,,,-99.99,,2013-04-25 19:42:00,
2013-04-25 12:52:00,63.0,49.0,-100.00,North,-999,-999.0,-999.0,61,-99.99,,,-99.99,,2013-04-25 19:52:00,
2013-04-25 13:01:00,64.0,49.0,-100.00,North,-999,-999.0,-999.0,59,-99.99,,,-99.99,,2013-04-25 20:01:00,
2013-04-25 13:11:00,64.0,49.0,-100.00,North,-999,-999.0,-999.0,59,-99.99,,,-99.99,,2013-04-25 20:11:00,
2013-04-25 13:22:00,64.0,49.0,-100.00,North,-999,-999.0,-999.0,59,-99.99,,,-99.99,,2013-04-25 20:22:00,
2013-04-25 13:32:00,67.0,51.0,-100.00,North,-999,-999.0,-999.0,56,-99.99,,,-99.99,,2013-04-25 20:32:00,
2013-04-25 13:43:00,67.0,51.0,-100.00,North,-999,-999.0,-999.0,56,-99.99,,,-99.99,,2013-04-25 20:43:00,
2013-04-25 13:52:00,67.0,51.0,-100.00,North,-999,-999.0,-999.0,56,-99.99,,,-99.99,,2013-04-25 20:52:00,
2013-04-25 14:01:00,67.0,50.0,-100.00,North,-999,-999.0,-999.0,54,-99.99,,,-99.99,,2013-04-25 21:01:00,
2013-04-25 14:11:00,67.0,50.0,-100.00,North,-999,-999.0,-999.0,54,-99.99,,,-99.99,,2013-04-25 21:11:00,
2013-04-25 14:21:00,67.0,50.0,-100.00,North,-999,-999.0,-999.0,54,-99.99,,,-99.99,,2013-04-25 21:21:00,
2013-04-25 14:33:00,68.0,49.0,-100.00,North,-999,-999.0,-999.0,51,-99.99,,,-99.99,,2013-04-25 21:33:00,
2013-04-25 14:42:00,68.0,49.0,-100.00,North,-999,-999.0,-999.0,51,-99.99,,,-99.99,,2013-04-25 21:42:00,
2013-04-25 14:52:00,68.0,49.0,-100.00,North,-999,-999.0,-999.0,51,-99.99,,,-99.99,,2013-04-25 21:52:00,
2013-04-25 15:02:00,68.0,49.0,-100.00,North,-999,-999.0,-999.0,51,-99.99,,,-99.99,,2013-04-25 22:02:00,
2013-04-25 15:33:00,66.0,48.0,-100.00,North,-999,-999.0,-999.0,52,-99.99,,,-99.99,,2013-04-25 22:33:00,
2013-04-25 15:42:00,66.0,48.0,-100.00,North,-999,-999.0,-999.0,52,-99.99,,,-99.99,,2013-04-25 22:42:00,
2013-04-25 15:52:00,66.0,48.0,-100.00,North,-999,-999.0,-999.0,52,-99.99,,,-99.99,,2013-04-25 22:52:00,
2013-04-25 16:02:00,66.0,48.0,-100.00,North,-999,-999.0,-999.0,52,-99.99,,,-99.99,,2013-04-25 23:02:00,
2013-04-25 16:32:00,73.0,55.0,-100.00,North,-999,-999.0,-999.0,54,-99.99,,,-99.99,,2013-04-25 23:32:00,
2013-04-25 17:01:00,63.0,48.0,-100.00,North,-999,-999.0,-999.0,57,-99.99,,,-99.99,,2013-04-26 00:01:00,
2013-04-25 17:11:00,63.0,48.0,-100.00,North,-999,-999.0,-999.0,57,-99.99,,,-99.99,,2013-04-26 00:11:00,
2013-04-25 17:21:00,63.0,48.0,-100.00,North,-999,-999.0,-999.0,57,-99.99,,,-99.99,,2013-04-26 00:21:00,
2013-04-25 17:31:00,63.0,48.0,-100.00,North,-999,-999.0,-999.0,57,-99.99,,,-99.99,,2013-04-26 00:31:00,
2013-04-25 17:42:00,63.0,48.0,-100.00,North,-999,-999.0,-999.0,57,-99.99,,,-99.99,,2013-04-26 00:42:00,
2013-04-25 17:52:00,63.0,48.0,-100.00,North,-999,-999.0,-999.0,57,-99.99,,,-99.99,,2013-04-26 00:52:00,
2013-04-25 18:01:00,62.0,48.0,-100.00,North,-999,-999.0,-999.0,60,-99.99,,,-99.99,,2013-04-26 01:01:00,
2013-04-25 18:11:00,62.0,48.0,-100.00,North,-999,-999.0,-999.0,60,-99.99,,,-99.99,,2013-04-26 01:11:00,
2013-04-25 18:21:00,62.0,48.0,-100.00,North,-999,-999.0,-999.0,60,-99.99,,,-99.99,,2013-04-26 01:21:00,
2013-04-25 18:31:00,61.0,49.0,-100.00,North,-999,-999.0,-999.0,64,-99.99,,,-99.99,,2013-04-26 01:31:00,
2013-04-25 18:42:00,61.0,49.0,-100.00,North,-999,-999.0,-999.0,64,-99.99,,,-99.99,,2013-04-26 01:42:00,
2013-04-25 18:52:00,61.0,49.0,-100.00,North,-999,-999.0,-999.0,64,-99.99,,,-99.99,,2013-04-26 01:52:00,
2013-04-25 19:01:00,59.0,48.0,-100.00,North,-999,-999.0,-999.0,68,-99.99,,,-99.99,,2013-04-26 02:01:00,
2013-04-25 19:11:00,59.0,48.0,-100.00,North,-999,-999.0,-999.0,68,-99.99,,,-99.99,,2013-04-26 02:11:00,
2013-04-25 19:21:00,59.0,48.0,-100.00,North,-999,-999.0,-999.0,68,-99.99,,,-99.99,,2013-04-26 02:21:00,
2013-04-25 19:31:00,57.0,48.0,-100.00,North,-999,-999.0,-999.0,72,-99.99,,,-99.99,,2013-04-26 02:31:00,
2013-04-25 19:42:00,57.0,48.0,-100.00,North,-999,-999.0,-999.0,72,-99.99,,,-99.99,,2013-04-26 02:42:00,
2013-04-25 19:52:00,57.0,48.0,-100.00,North,-999,-999.0,-999.0,72,-99.99,,,-99.99,,2013-04-26 02:52:00,
2013-04-25 20:01:00,55.0,49.0,-100.00,North,-999,-999.0,-999.0,79,-99.99,,,-99.99,,2013-04-26 03:01:00,
2013-04-25 20:11:00,55.0,49.0,-100.00,North,-999,-999.0,-999.0,79,-99.99,,,-99.99,,2013-04-26 03:11:00,
2013-04-25 20:21:00,55.0,49.0,-100.00,North,-999,-999.0,-999.0,79,-99.99,,,-99.99,,2013-04-26 03:21:00,
2013-04-25 20:32:00,52.0,47.0,-100.00,North,-999,-999.0,-999.0,82,-99.99,,,-99.99,,2013-04-26 03:32:00,
2013-04-25 20:43:00,52.0,47.0,-100.00,North,-999,-999.0,-999.0,82,-99.99,,,-99.99,,2013-04-26 03:43:00,
2013-04-25 20:53:00,52.0,47.0,-100.00,North,-999,-999.0,-999.0,82,-99.99,,,-99.99,,2013-04-26 03:53:00,
2013-04-25 21:02:00,50.0,46.0,-100.00,North,-999,-999.0,-999.0,86,-99.99,,,-99.99,,2013-04-26 04:02:00,
2013-04-25 21:12:00,50.0,46.0,-100.00,North,-999,-999.0,-999.0,86,-99.99,,,-99.99,,2013-04-26 04:12:00,
2013-04-25 21:22:00,50.0,46.0,-100.00,North,-999,-999.0,-999.0,86,-99.99,,,-99.99,,2013-04-26 04:22:00,
2013-04-25 21:32:00,49.0,45.0,-100.00,North,-999,-999.0,-999.0,87,-99.99,,,-99.99,,2013-04-26 04:32:00,
2013-04-25 21:43:00,49.0,45.0,-100.00,North,-999,-999.0,-999.0,87,-99.99,,,-99.99,,2013-04-26 04:43:00,
2013-04-25 21:53:00,49.0,45.0,-100.00,North,-999,-999.0,-999.0,87,-99.99,,,-99.99,,2013-04-26 04:53:00,
2013-04-25 22:02:00,47.0,44.0,-100.00,North,-999,-999.0,-999.0,90,-99.99,,,-99.99,,2013-04-26 05:02:00,
2013-04-25 22:12:00,47.0,44.0,-100.00,North,-999,-999.0,-999.0,90,-99.99,,,-99.99,,2013-04-26 05:12:00,
2013-04-25 22:22:00,47.0,44.0,-100.00,North,-999,-999.0,-999.0,90,-99.99,,,-99.99,,2013-04-26 05:22:00,
2013-04-25 22:32:00,47.0,44.0,-100.00,North,-999,-999.0,-999.0,90,-99.99,,,-99.99,,2013-04-26 05:32:00,